#timestamp,LO_Frequency,Hit,StdDev 
1652936415.1,286046992.5,N
1652936416.0,286046992.6,N
1652936435.8,286046991.4,N
1652936455.7,286046987.4,Y
1652936475.5,286046995.4,P
1652936495.3,286046994.7,N
1652936515.2,286046992.3,P
1652936535.0,286046992.8,Y
1652936535.9,286046992.3,P
1652936555.8,286047006.7,P
1652936575.6,286047003.9,N
1652936595.4,286047001.2,N
1652936615.3,286047002.0,N
1652936635.1,286047000.1,N
1652936655.8,286047004.3,N
1652936675.7,286047002.2,N
1652936725.6,286047001.1,E
1652936735.5,286047000.7,N
1652936755.3,286046998.5,P
1652936775.1,286046994.9,P
1652936795.9,286046994.0,N
1652936815.7,286046997.5,N
1652936835.6,286046995.4,N
1652936855.4,286046995.0,N
1652936875.2,286046995.1,N
1652936895.1,286046997.5,N
1652936896.0,286046995.4,N
1652936915.8,286046996.1,N
1652936935.7,286046993.9,Y
1652936955.5,286047002.4,P
1652936975.3,286047001.1,N
1652936995.2,286047002.3,N
1652937015.0,286047001.0,N
1652937015.9,286047001.5,N
1652937035.8,286047003.2,N
1652937055.6,286047002.7,N
1652937075.4,286047001.8,N
1652937095.3,286047000.7,N
1652937115.1,286047000.9,N
1652937135.8,286047000.9,N
1652937155.7,286046998.9,N
1652937175.5,286046999.4,N
1652937195.4,286046997.7,N
1652937215.2,286046997.0,N
1652937235.0,286047001.9,N
1652937235.9,286047002.9,N
1652937255.8,286046998.1,N
1652937275.6,286046997.3,N
1652937295.4,286046995.5,N
1652937315.3,286047002.4,N
1652937335.1,286046998.5,N
1652937355.9,286046994.1,N
1652937375.7,286046997.5,N
1652937395.5,286046995.8,N
1652937415.4,286046999.1,N
1652937435.2,286046998.8,N
1652937455.0,286047000.4,N
1652937456.0,286047002.3,N
1652937475.8,286047004.7,N
1652937495.6,286047006.1,N
1652937545.5,286047014.3,E
1652937555.4,286047000.7,N
1652937575.3,286046995.9,P
1652937595.1,286046997.3,N
1652937596.0,286046993.7,Y
1652937615.8,286046993.8,P
1652937635.7,286046995.5,N
1652937655.5,286046993.9,P
1652937675.3,286046989.1,Y
1652937695.2,286046996.3,P
1652937715.0,286046995.7,P
1652937715.9,286046996.3,P
1652937735.8,286046994.0,Y
1652937755.6,286046999.1,P
1652937775.4,286047001.1,N
1652937795.3,286047002.0,N
1652937815.1,286047002.9,N
1652937835.9,286047001.0,N
1652937855.7,286046999.9,N
1652937875.5,286047001.0,N
1652937895.4,286046995.6,N
1652937915.2,286046995.1,N
1652937935.0,286046997.8,N
1652937935.9,286046995.6,N
1652937955.8,286046997.2,N
1652937975.6,286046998.0,N
1652937995.5,286046996.8,N
1652938015.3,286046998.7,N
1652938035.1,286046996.6,N
1652938055.9,286046995.5,N
1652938075.7,286046995.2,N
1652938095.6,286046996.2,N
1652938115.4,286046997.4,N
1652938135.2,286046993.7,N
1652938155.1,286046994.7,N
1652938156.0,286046993.5,N
1652938175.8,286046997.3,N
1652938195.6,286046997.1,N
1652938215.5,286046994.8,N
1652938235.3,286046992.1,Y
1652938255.2,286046995.7,P
1652938275.0,286046993.5,P
1652938275.9,286046994.5,P
1652938295.7,286046995.4,Y
1652938315.6,286047001.2,P
1652938335.4,286047000.2,N
1652938355.3,286047004.2,N
1652938375.1,286047003.2,N
1652938395.8,286047007.5,N
1652938415.7,286047008.7,N
1652938435.5,286047010.3,N
1652938455.4,286047009.6,N
1652938475.2,286047006.6,N
1652938495.0,286047007.9,N
1652938495.9,286047009.7,N
1652938515.8,286047013.0,N
1652938535.6,286047016.7,Y
1652938555.5,286047010.3,P
1652938575.3,286047010.8,P
1652938595.1,286047010.8,P
1652938615.9,286047004.7,N
1652938635.7,286047004.8,N
1652938655.5,286047005.1,N
1652938675.4,286047006.6,N
1652938695.2,286047009.0,Y
1652938715.1,286047002.8,P
1652938716.0,286047001.7,N
1652938735.8,286047003.5,N
1652938755.6,286047006.0,N
1652938775.5,286047002.1,N
1652938795.3,286047002.3,N
1652938815.2,286046998.5,N
1652938835.9,286047001.2,N
1652938855.7,286046995.0,N
1652938875.6,286046999.6,N
1652938895.4,286046995.3,N
1652938915.2,286046996.4,N
1652938935.1,286046992.0,N
1652938936.0,286046991.7,N
1652938955.8,286046995.4,N
1652938975.7,286046998.9,N
1652938995.5,286047002.1,N
1652939015.3,286047003.1,N
1652939035.2,286047005.7,N
1652939055.0,286047005.1,N
1652939055.9,286047007.1,N
1652939075.8,286047007.7,N
1652939095.6,286047008.2,N
1652939115.4,286047008.6,N
1652939135.3,286047004.8,N
1652939155.1,286047005.6,N
1652939175.9,286047004.2,N
1652939195.7,286047001.6,N
1652939215.5,286047003.3,N
1652939235.4,286047004.8,N
1652939255.2,286047007.1,N
1652939275.0,286047006.7,N
1652939275.9,286047008.8,N
1652939295.8,286047010.2,N
1652939315.6,286047009.6,N
1652939335.5,286047010.6,N
1652939355.3,286047011.9,N
1652939375.1,286047011.1,N
1652939395.9,286047011.4,N
1652939415.7,286047011.5,N
1652939435.6,286047012.3,N
1652939455.4,286047010.4,N
1652939475.2,286047009.1,N
1652939495.1,286047009.0,N
1652939496.0,286047006.2,N
1652939515.8,286047004.7,N
1652939535.6,286047003.1,N
1652939555.5,286047006.0,N
1652939575.3,286047007.2,N
1652939595.2,286047005.8,N
1652939615.9,286047001.4,N
1652939635.7,286047001.6,N
1652939655.6,286047001.4,N
1652939675.4,286047003.7,N
1652939695.2,286047005.5,N
1652939715.1,286047005.6,N
1652939716.0,286047005.1,N
1652939735.8,286047005.4,N
1652939755.7,286047003.4,N
1652939775.5,286047005.3,N
1652939795.3,286047006.7,N
1652939815.2,286047009.6,N
1652939835.0,286047009.3,N
1652939835.9,286047010.0,Y
1652939855.7,286047003.9,P
1652939875.6,286047001.0,N
1652939895.4,286046997.9,N
1652939915.3,286046994.5,N
1652939935.1,286046993.5,N
1652939955.8,286046995.0,N
1652939975.7,286046999.5,N
1652939995.5,286047000.2,N
